Hourly Data Report for June 20, 2021

TRENTON A
ONTARIO
Current Station Operator: DND

44°07'00.000" N
77°32'00.000" W
86.30 m
6158875
71621
YTR

Download Data

Hourly Data (June 2021)
Hourly Data Report for June 20, 2021
TIME
LST
Temp Definition
°C
Dew Point Definition
°C
Rel Hum Definition
%
Precip. Amount Definition
mm

Wind Dir Definition
10's deg

Wind Spd Definition
km/h
Visibility Definition
km
Stn Press Definition
kPa
Hmdx Definition


Wind Chill Definition


Weather Definition


00:00 20.1 14.8 72   25 15 24.1 99.71     Mainly Clear
01:00 19.3 15.2 77   24 8 24.1 99.69     Mainly Clear
02:00 17.4 15.5 89   24 9 24.1 99.67     Mainly Clear
03:00 16.3 15.2 93   24 8 16.1 99.71     Mainly Clear
04:00 14.7 14.2 97   27 5 24.1 99.71     Mainly Clear
05:00 15.3 14.0 92   27 5 24.1 99.78     Mainly Clear
06:00 16.9 13.0 78   31 8 24.1 99.81     Mainly Clear
07:00 18.5 12.5 68   30 5 24.1 99.81     Mainly Clear
08:00 20.5 13.4 64   21 8 24.1 99.84     Clear
09:00 22.2 10.8 48   23 5 24.1 99.80     Clear
10:00 24.1 11.0 44   23 11 24.1 99.81 26   Clear
11:00 24.3 11.0 43   24 17 24.1 99.77 26   Clear
12:00 23.3 12.1 49   23 21 24.1 99.75 26   Mainly Clear
13:00 23.5 12.9 51   22 18 24.1 99.71 26   Mainly Clear
14:00 24.3 12.5 48   23 17 24.1 99.70 27   Mostly Cloudy
15:00 24.3 13.3 50   23 17 24.1 99.67 27   Mostly Cloudy
16:00 24.7 12.4 46   23 9 24.1 99.57 27   Mostly Cloudy
17:00 26.0 12.1 42   23 8 24.1 99.54 28   Mostly Cloudy
18:00 24.7 13.4 49   23 11 24.1 99.56 28   Mainly Clear
19:00 23.9 13.3 52   23 8 24.1 99.55 27   Mainly Clear
20:00 22.2 14.9 63   21 4 24.1 99.52 26   Mainly Clear
21:00 20.6 14.8 69     0 24.1 99.53     Mainly Clear
22:00 18.1 15.0 82     0 24.1 99.50     Mostly Cloudy
23:00 17.3 14.6 84   5 5 24.1 99.41     Mostly Cloudy

Notes on Data Quality.

Legend

  • E = Estimated
  • M = Missing
  • NA = Not Available*
  • [empty] = Indicates an unobserved value
Date modified: